Theta_e
327 328 331 330 329 328 326 325 325 324 324 323 323 323 322 322 322 321 320 320 319 320 321 318 318 319 320 319 322 321 320 319 318 316 315 316 315 315 319 318 319 319 320 319 319 316 315 312 314 319 321 322 323 325 328 329 331 332 332 332 333 333 333
330 330 330 329 327 327 325 325 324 324 323 322 322 322 321 321 322 320 319 318 318 319 320 318 317 317 316 317 318 316 315 315 316 317 315 314 314 313 314 314 315 315 316 316 317 316 314 311 312 313 314 318 319 321 321 323 324 326 329 331 333 334 333
330 329 328 326 325 324 322 322 321 322 322 320 320 321 321 321 319 320 318 317 317 318 319 315 316 315 315 317 316 315 314 313 314 314 314 314 313 313 313 313 312 312 312 313 313 314 314 313 310 310 312 312 311 314 318 319 320 321 322 327 332 332 333
328 327 325 323 323 323 322 322 320 319 319 319 319 319 318 318 318 319 317 317 317 318 316 315 314 314 314 315 315 314 313 312 312 313 313 313 312 312 312 312 311 311 311 311 311 312 312 310 309 309 310 311 311 311 315 318 319 320 322 324 329 332 333
326 324 322 321 322 322 321 320 320 318 317 317 318 317 315 316 317 315 316 314 315 314 313 314 314 314 315 315 313 313 311 311 312 313 311 311 311 312 311 311 311 312 314 314 313 312 311 310 310 309 309 311 311 311 314 316 318 319 319 320 321 323 328
323 322 321 321 321 320 319 318 318 316 315 314 314 314 314 314 315 313 313 312 313 314 314 314 314 314 313 313 312 311 310 310 310 311 310 311 311 310 310 311 312 313 314 315 313 311 310 310 310 307 308 310 307 308 311 312 312 314 317 318 318 319 320
320 320 320 320 319 319 319 317 316 315 314 313 313 312 313 314 313 314 313 313 313 313 314 314 313 314 313 312 310 309 309 310 311 311 310 311 310 310 311 309 310 311 310 311 310 310 308 307 306 305 304 305 306 305 307 308 309 308 311 314 315 317 319
318 318 319 319 318 317 318 317 316 314 313 313 312 312 314 312 313 313 313 311 312 311 312 312 312 311 311 311 310 309 310 310 310 310 309 310 311 310 309 309 309 307 308 308 308 308 308 306 304 303 302 299 299 301 302 303 305 305 306 309 312 314 314
319 318 318 318 317 317 316 316 315 314 313 313 313 311 312 312 312 312 312 312 311 311 312 311 310 310 309 309 307 307 307 312 309 308 308 309 308 308 308 308 306 305 306 306 306 306 306 305 303 302 301 300 297 295 298 298 300 301 306 305 308 310 309
316 316 316 316 316 316 315 314 313 313 313 312 314 313 311 311 312 311 310 310 309 310 310 310 309 309 308 307 307 306 306 308 309 308 308 307 307 306 307 306 305 304 304 305 304 305 304 303 302 301 301 300 299 297 295 294 297 298 301 304 302 305 308
316 315 315 315 315 315 314 314 313 313 312 313 313 314 311 310 309 311 307 307 308 308 308 309 309 308 308 307 307 306 307 307 307 307 308 307 305 306 306 304 304 302 303 303 303 303 302 302 301 301 301 301 301 297 296 294 295 299 299 302 303 302 305
315 315 315 316 315 314 312 311 311 310 310 312 312 309 308 307 306 306 305 305 305 306 306 307 308 307 307 306 307 305 306 305 305 304 305 305 305 304 303 302 302 301 301 301 301 302 302 301 300 300 300 301 300 300 297 296 293 298 301 299 302 304 303
314 314 314 313 313 312 312 311 311 310 310 311 308 307 305 305 304 303 303 303 303 304 304 305 306 306 306 306 305 305 304 304 303 303 302 303 304 303 302 301 301 300 301 301 300 301 300 301 300 299 299 299 299 299 299 297 295 294 300 300 300 301 303
312 313 312 312 311 311 311 311 310 310 309 307 307 306 305 304 303 303 302 303 302 302 303 303 304 305 305 304 305 304 304 303 302 302 302 301 302 301 301 300 300 301 301 300 299 299 299 299 299 299 299 298 297 298 298 296 294 294 297 301 300 301 302
312 312 311 311 311 310 310 309 309 308 306 306 305 304 303 303 302 302 301 301 301 301 302 302 303 303 304 303 303 305 303 302 301 301 301 300 300 301 300 299 299 299 300 299 298 298 298 298 298 297 297 297 297 297 299 297 296 295 294 298 299 302 302
312 311 311 310 309 309 309 308 309 306 305 304 304 303 302 302 301 301 301 300 300 300 300 300 301 301 302 302 302 302 302 301 300 300 300 299 299 300 299 299 298 299 300 298 297 297 298 297 297 296 296 297 297 298 298 299 297 295 295 296 299 300 301
310 310 310 309 309 309 308 307 307 305 304 303 302 302 301 301 300 300 299 299 299 298 298 299 299 300 301 302 301 301 301 300 300 299 299 299 298 298 298 298 298 298 298 297 296 297 297 296 295 296 296 296 297 297 298 298 298 297 297 296 298 299 301
309 308 308 308 308 308 307 307 307 305 304 303 303 302 302 301 299 299 299 298 298 297 297 297 297 298 299 301 301 301 300 300 299 299 299 299 302 298 298 298 298 298 297 296 295 295 295 294 295 296 295 296 296 297 298 298 298 298 297 297 298 300 300
308 307 307 307 306 306 306 305 305 305 303 302 302 301 300 300 300 298 298 298 297 297 296 296 296 296 297 299 300 300 300 300 300 299 298 298 298 298 298 298 298 298 297 295 294 294 294 294 295 295 295 296 296 297 297 297 298 298 298 298 297 296 298
307 307 307 307 307 306 305 304 304 303 304 302 301 300 300 299 300 298 298 298 297 297 296 295 294 295 296 297 299 299 299 299 299 299 298 298 298 298 298 299 298 298 297 296 294 294 294 294 295 295 297 297 297 297 297 297 297 297 296 295 295 295 295
306 306 306 306 305 305 305 304 304 304 303 301 301 300 300 299 299 298 298 297 297 297 295 294 293 293 294 295 298 299 299 298 298 298 298 298 298 297 298 298 298 298 298 296 295 294 294 294 295 295 297 297 297 297 296 296 296 295 294 294 294 293 294
305 305 305 304 304 304 304 303 304 303 303 302 301 300 300 299 298 297 297 296 296 296 295 294 294 293 293 294 296 297 298 298 298 298 297 297 297 297 297 298 298 298 300 301 299 297 297 297 296 295 296 296 297 296 296 296 295 295 294 294 293 294 293
304 304 303 303 303 303 303 303 303 302 302 301 300 300 299 298 297 296 296 295 295 295 294 294 295 294 295 294 294 297 299 298 298 297 297 296 296 296 297 296 300 303 301 300 298 296 295 296 298 297 296 296 297 296 296 295 295 295 294 293 293 293 292
303 303 302 302 302 303 303 303 303 302 302 300 299 299 298 297 296 295 294 294 293 294 293 294 293 292 292 295 296 294 297 297 297 297 296 295 295 296 296 296 296 300 300 299 297 295 294 294 294 295 296 298 298 297 296 295 295 295 295 294 294 293 293
303 302 302 302 303 303 303 302 302 302 302 301 300 299 297 296 296 295 294 293 292 293 292 294 292 293 292 293 295 295 297 298 298 296 296 295 295 295 295 295 296 297 297 299 297 293 294 295 294 294 295 295 295 295 295 296 295 295 295 294 294 294 293
302 301 302 302 302 302 302 301 301 301 301 301 300 299 297 297 295 295 293 292 292 292 291 293 292 293 293 293 293 297 298 298 298 297 296 295 294 294 293 295 295 295 295 300 299 292 291 292 294 295 296 297 297 297 294 293 294 297 297 295 295 294 295
301 301 301 301 301 301 301 300 300 301 301 301 299 298 297 296 295 295 294 292 291 291 291 293 292 292 293 293 293 296 300 299 298 297 296 295 294 293 293 293 293 293 292 293 293 292 291 290 290 292 294 295 295 296 296 295 295 295 297 297 296 295 296
301 301 301 301 301 300 300 299 300 300 300 299 299 297 296 295 295 295 293 292 291 291 292 292 292 292 292 294 295 297 298 299 298 297 296 295 294 294 293 293 292 291 292 292 295 293 291 290 290 292 292 293 294 294 295 295 296 297 298 298 297 297 297
300 300 300 300 300 299 298 298 298 299 299 298 298 298 298 297 294 293 292 291 291 290 291 292 292 292 293 294 296 299 298 297 297 296 296 295 295 294 294 292 292 291 291 291 295 292 292 292 290 291 291 292 293 293 294 297 295 295 297 296 296 297 297
300 299 299 299 298 298 298 298 298 298 297 297 297 297 297 297 297 295 293 292 290 290 291 292 292 292 292 293 295 296 296 296 295 295 295 295 294 295 296 295 293 291 292 292 294 291 291 293 290 290 290 291 292 292 292 294 295 295 295 294 294 294 294
299 299 298 298 298 298 298 298 298 299 297 297 296 296 296 295 295 294 292 291 292 291 290 293 292 292 292 293 295 294 293 293 293 293 293 294 295 294 295 301 303 294 292 293 292 291 291 293 290 290 290 290 290 290 291 293 293 295 296 295 295 294 294
299 298 298 298 298 298 298 298 299 299 297 296 296 296 296 294 293 293 293 293 301 293 291 293 292 291 292 292 294 293 293 291 291 291 293 292 292 293 293 296 299 297 295 294 291 291 291 292 290 290 290 290 289 289 291 291 292 293 294 294 294 296 296
299 299 298 298 298 298 299 299 298 298 297 296 295 295 295 294 292 292 293 293 295 292 292 291 292 292 292 292 293 294 293 291 291 291 292 295 294 292 292 293 295 293 292 292 291 290 291 291 291 291 290 289 289 289 291 292 294 294 292 293 293 294 295
299 298 298 298 298 299 298 297 297 297 297 297 296 295 294 294 293 293 293 293 292 293 294 291 292 292 292 292 291 292 290 291 289 290 291 292 292 292 292 292 293 294 292 291 291 290 291 291 292 293 290 289 289 291 292 292 293 295 292 293 293 293 294
299 300 299 299 298 297 298 299 298 297 296 296 296 296 295 295 294 293 292 293 292 291 296 296 292 292 291 292 291 291 291 290 290 291 291 292 291 291 291 291 292 294 291 290 290 291 291 291 291 293 290 290 291 290 293 293 292 292 291 291 291 292 293
299 301 299 298 298 297 298 298 298 298 297 296 296 295 295 296 295 294 293 292 291 291 291 293 294 293 292 291 291 291 291 291 291 293 291 290 290 290 290 291 293 294 291 290 291 291 291 291 292 290 290 290 290 290 292 291 291 291 290 290 290 290 291
299 299 298 298 297 297 297 298 298 298 297 297 295 295 295 296 294 294 293 291 292 291 291 291 293 292 292 291 291 290 291 291 291 291 292 291 291 290 290 290 291 290 290 291 291 291 291 291 290 290 290 290 290 291 291 290 290 290 289 289 289 289 290
Wind_Speed
7 7 8 7 7 7 8 8 7 7 8 8 8 8 7 6 6 6 5 6 6 6 6 6 6 5 6 6 7 8 8 8 8 7 6 8 8 7 8 8 7 6 6 5 5 6 5 9 13 6 2 8 9 6 6 8 7 7 8 6 6 7 7
7 7 8 8 8 7 8 6 8 8 8 7 7 6 6 6 5 5 5 6 7 6 7 6 6 6 7 7 8 9 8 7 7 6 6 7 7 7 7 8 6 7 5 4 6 7 6 7 7 10 14 11 6 2 9 7 9 8 8 9 8 7 7
7 8 7 8 7 7 8 8 8 7 6 6 6 7 6 5 5 5 5 6 6 6 5 5 5 6 6 6 7 7 7 7 6 6 6 5 6 6 7 6 7 7 6 5 6 8 5 3 6 9 10 12 15 12 8 9 12 11 10 8 7 7 7
9 9 9 8 7 7 8 7 7 6 6 6 6 6 5 5 5 5 6 5 5 4 5 4 5 6 5 6 7 7 6 5 5 5 6 5 5 6 7 6 6 7 6 7 8 8 8 7 9 8 8 7 9 13 11 11 11 11 10 8 7 7 6
8 8 9 9 8 9 7 8 7 7 6 6 5 5 5 5 5 5 4 4 4 4 5 4 5 6 6 6 6 6 6 5 4 3 4 4 5 4 4 5 5 5 5 6 7 7 8 9 8 9 9 10 9 7 9 11 10 8 11 10 9 10 10
9 9 9 8 7 8 7 9 7 6 6 6 5 5 3 4 4 4 4 5 5 5 5 5 5 6 7 7 6 5 6 6 6 4 5 4 4 4 4 4 6 6 7 7 7 8 8 8 8 9 9 9 9 11 10 10 8 10 8 9 12 11 10
9 9 8 8 8 8 8 8 7 6 6 5 5 4 3 3 3 4 4 5 5 5 5 6 6 7 7 6 5 5 5 5 5 5 5 3 4 4 6 7 8 9 9 9 9 8 8 9 9 10 10 9 9 10 9 9 10 11 7 9 10 10 9
9 9 8 7 8 8 8 8 7 6 6 5 6 3 4 4 3 4 4 4 4 5 5 7 7 7 6 6 5 5 5 4 5 6 7 6 8 8 9 8 8 9 8 8 8 8 8 9 9 10 10 12 11 9 9 8 8 8 11 10 10 10 10
8 8 8 8 8 8 8 8 7 6 5 5 4 4 2 3 3 4 4 6 6 6 6 6 6 6 5 5 4 5 5 4 5 6 6 7 9 8 7 8 9 9 8 8 8 8 8 8 9 8 8 8 10 12 10 10 8 8 9 12 11 7 12
8 9 9 10 10 8 7 7 6 6 5 4 3 3 3 4 4 5 6 6 6 6 5 4 4 4 4 3 4 4 5 5 4 6 6 8 8 8 8 10 9 8 8 8 8 8 8 8 7 7 6 8 9 8 10 12 11 12 11 9 10 10 9
9 9 8 9 8 8 5 5 5 5 4 3 3 3 4 6 6 7 6 6 6 7 6 5 4 4 3 4 4 6 6 6 8 8 8 9 9 8 9 10 9 8 8 9 9 9 8 8 7 7 7 7 6 8 8 10 12 9 10 8 6 11 11
8 8 7 7 6 6 7 6 6 5 3 3 4 6 6 6 7 7 6 7 7 7 7 6 6 5 4 6 7 8 8 8 9 9 8 9 8 9 9 9 8 7 7 7 7 7 8 8 8 7 8 7 7 7 9 9 11 8 7 12 11 9 11
8 8 7 7 7 7 6 6 5 4 4 5 6 7 7 7 7 8 8 8 7 7 7 6 6 6 6 6 6 7 8 9 9 9 8 8 7 8 8 8 8 7 7 6 7 7 7 8 8 7 8 8 8 8 8 9 10 14 10 11 11 14 14
9 8 9 8 8 7 6 5 4 4 5 6 6 7 7 8 8 9 9 8 7 6 7 7 7 6 6 6 7 7 8 8 8 7 7 8 7 7 7 9 8 9 8 7 7 6 7 8 8 7 8 8 9 9 10 10 11 13 11 9 10 12 14
8 8 9 9 8 6 5 5 4 6 7 7 8 9 9 8 8 9 8 8 7 7 7 8 8 6 6 7 7 6 7 6 7 7 7 8 7 7 7 8 8 7 7 7 8 8 8 8 9 9 9 9 9 9 8 8 10 11 15 12 11 9 10
8 8 8 7 7 7 7 6 6 7 8 8 8 9 9 10 9 9 8 8 7 7 8 7 7 7 6 6 7 7 6 7 8 9 9 9 8 6 6 6 8 7 7 8 8 8 9 10 11 10 11 8 8 8 9 10 10 11 13 12 10 12 11
8 7 7 5 6 5 6 7 7 8 8 8 10 9 10 10 9 8 8 8 8 7 7 7 7 6 7 6 7 7 7 8 8 8 8 7 7 6 6 8 8 9 8 9 9 9 10 9 8 8 8 8 8 10 9 9 10 11 11 12 10 11 10
7 7 7 7 7 7 7 7 6 7 7 8 8 9 9 9 9 8 8 7 7 7 6 6 6 7 6 6 5 7 7 7 7 7 7 6 6 6 6 8 8 8 9 10 10 10 9 9 7 6 7 7 7 8 8 9 11 10 10 12 11 9 10
7 7 7 7 8 8 8 7 7 7 8 9 9 9 9 8 8 8 7 6 6 6 5 5 6 5 6 6 5 5 6 6 6 6 5 6 6 6 6 7 8 9 10 11 10 9 8 8 8 8 7 7 7 7 8 9 9 10 11 10 12 14 11
6 7 7 7 7 8 8 7 8 8 8 9 9 9 9 9 8 7 6 6 5 4 5 5 6 7 6 6 5 5 7 6 5 4 5 6 6 7 6 6 7 9 9 10 9 8 9 9 8 10 8 10 9 10 7 8 11 12 11 12 11 11 12
6 6 6 7 7 7 7 7 7 7 8 9 9 9 9 9 7 6 6 5 4 4 5 6 6 6 5 5 4 4 6 5 5 5 6 7 7 7 6 6 5 8 8 8 8 7 6 7 7 8 8 8 9 9 10 10 10 10 11 12 12 13 11
6 7 8 8 8 8 8 8 8 8 9 9 9 10 9 8 7 6 6 5 6 6 7 6 5 4 4 5 3 3 4 5 5 6 6 7 7 6 5 5 5 7 10 13 14 11 10 8 6 6 8 6 8 8 10 9 7 9 10 11 13 12 12
7 7 8 8 7 7 7 8 8 9 10 10 9 9 9 8 7 6 6 6 6 6 5 4 5 6 4 2 2 2 2 5 5 6 7 7 6 6 4 4 6 14 11 11 12 13 13 14 13 9 6 5 6 7 9 7 7 7 9 12 12 13 13
8 8 7 7 7 8 8 7 8 8 8 9 10 9 8 8 7 6 6 6 5 4 4 3 5 6 7 7 3 2 1 5 5 6 6 7 6 5 4 4 4 7 7 8 9 13 12 13 12 13 12 10 7 5 7 9 9 7 9 9 11 13 12
8 8 7 8 9 8 8 8 8 7 8 9 9 9 9 8 7 6 6 6 5 4 4 8 10 10 9 8 5 1 0 5 5 5 5 6 5 4 4 3 4 4 5 7 6 8 10 12 13 13 13 11 10 9 5 5 8 8 10 10 10 12 11
8 8 8 8 7 8 8 8 8 8 8 8 8 8 7 7 6 6 6 6 5 5 4 9 10 11 11 10 8 3 1 6 6 6 5 5 5 4 4 4 4 4 4 10 7 6 7 9 12 14 14 12 10 11 10 9 7 6 7 9 10 13 13
9 8 8 8 9 9 8 8 7 6 7 8 9 8 8 8 6 5 5 5 5 5 5 7 10 11 12 11 10 6 2 6 6 6 5 4 4 3 2 4 5 6 6 5 4 7 8 8 8 9 9 8 8 9 10 10 10 10 8 8 10 12 13
9 9 9 10 9 9 8 8 8 6 7 8 8 9 8 7 6 5 4 4 5 5 4 9 12 13 13 12 12 8 4 5 6 5 4 4 3 2 1 4 4 5 6 7 7 9 7 8 8 8 8 9 9 8 7 7 8 7 7 7 8 10 12
9 9 10 9 8 8 7 8 8 7 7 7 7 7 6 7 7 6 4 4 5 5 6 11 13 14 14 13 13 7 7 7 5 3 4 2 2 0 1 4 5 6 6 7 12 15 11 8 7 8 9 9 9 8 7 8 12 12 9 7 8 10 10
10 9 9 9 8 8 8 8 8 7 8 8 8 8 7 6 5 5 4 4 4 4 5 10 14 15 15 14 10 7 7 7 6 5 1 2 1 0 2 4 4 5 6 8 13 16 14 10 7 8 8 9 9 8 9 9 13 16 15 14 14 14 16
9 9 8 9 8 8 7 7 8 8 8 8 8 7 7 6 4 4 4 4 4 5 5 8 12 13 14 13 9 7 6 6 6 6 4 1 1 2 4 10 8 5 7 8 14 16 16 9 8 7 7 9 9 9 10 10 8 10 15 16 15 15 16
9 8 8 7 8 9 8 8 8 8 8 8 8 7 7 6 5 4 4 3 5 5 4 5 8 10 11 11 8 6 6 6 6 6 5 4 4 4 5 6 11 10 8 12 16 15 16 10 7 6 6 6 9 10 11 11 10 11 12 12 12 11 11
8 8 8 7 7 7 6 7 8 9 8 8 7 7 6 6 5 4 3 3 3 4 4 4 5 9 10 11 10 6 6 7 5 5 5 5 6 6 6 7 9 12 14 16 15 15 15 13 7 6 6 7 8 11 9 10 11 11 12 12 12 11 11
9 7 6 7 7 6 7 7 8 8 8 7 7 7 7 6 5 4 3 3 3 2 3 5 5 9 9 9 9 7 4 4 3 3 4 5 6 6 7 7 7 11 15 16 14 15 14 14 11 7 8 6 6 9 10 10 13 14 11 12 11 11 10
7 7 6 7 7 7 5 6 7 8 7 7 8 8 6 6 6 4 3 3 3 3 3 7 5 9 11 9 7 6 5 3 2 3 5 4 6 7 6 6 7 10 15 14 14 14 14 13 14 7 11 12 15 15 12 9 9 9 10 11 10 11 11
7 6 6 6 7 7 7 8 7 8 7 6 6 6 6 6 6 6 4 3 4 4 4 5 9 7 10 10 9 6 6 6 9 5 4 4 5 7 6 6 8 12 14 12 12 14 13 14 11 9 14 14 15 14 12 8 9 9 10 11 11 12 12
6 6 7 7 6 7 7 7 7 7 7 7 7 7 6 6 6 7 6 5 3 3 3 5 8 10 7 10 9 9 10 11 10 6 4 3 6 6 7 6 9 12 11 11 13 13 13 11 11 14 13 14 15 11 9 9 9 10 10 11 12 12 12
Wind_Direction
114 113 105 101 98 98 88 86 79 69 64 64 56 47 42 34 33 30 33 32 30 28 32 24 17 16 17 4 20 34 34 32 29 28 15 14 16 359 357 6 4 3 1 3 22 6 317 327 325 340 338 344 331 325 344 328 317 306 295 271 251 249 241
114 110 106 103 103 102 99 92 83 77 67 60 61 56 47 38 32 29 32 35 28 26 31 25 20 24 22 26 35 42 38 33 30 26 32 20 18 12 3 8 4 5 359 2 9 3 354 324 317 338 333 333 321 326 346 337 333 323 304 285 264 250 246
121 114 112 112 107 102 95 90 87 85 84 74 61 49 38 30 28 26 36 41 40 33 32 27 26 20 19 36 47 50 43 40 26 32 36 25 25 15 17 6 9 356 6 8 15 1 349 11 339 331 338 338 335 330 340 337 329 321 314 304 282 265 259
124 121 114 107 108 100 99 95 94 98 89 83 73 53 44 37 33 39 42 41 41 34 29 29 29 22 22 42 50 47 39 37 26 33 30 33 31 23 17 10 7 6 6 3 2 3 358 347 340 335 331 334 319 316 328 328 321 312 310 324 327 308 295
112 110 105 104 105 105 105 104 93 79 69 69 67 60 43 41 47 42 40 38 33 29 27 32 29 30 36 48 50 41 26 14 10 35 36 42 35 28 26 7 354 348 357 9 7 3 3 352 342 331 329 329 317 313 320 323 318 330 335 330 348 358 350
96 99 99 100 91 86 81 81 88 90 82 67 50 49 32 57 65 52 39 33 30 27 35 36 27 33 42 49 49 35 20 15 4 11 30 38 38 32 12 347 356 3 14 13 19 19 12 358 351 342 341 341 329 326 332 337 332 334 325 347 351 344 343
90 87 87 89 88 86 89 90 90 91 88 82 65 50 48 50 64 61 50 44 42 37 40 38 36 38 46 53 44 29 13 5 11 23 18 17 23 15 12 14 29 28 26 21 21 22 14 8 4 359 344 338 336 327 323 330 330 331 335 346 338 337 343
91 89 87 90 91 90 87 93 88 82 82 84 79 67 47 47 59 63 62 58 47 42 44 48 44 45 45 47 33 21 10 12 19 18 14 19 25 26 35 38 41 33 25 21 19 18 19 20 12 3 357 344 338 333 327 324 323 327 327 324 338 337 356
94 93 91 86 83 82 82 87 92 94 93 92 98 92 72 68 69 62 51 53 46 40 47 57 55 53 48 49 31 19 22 7 23 23 24 37 35 31 37 45 43 33 20 23 19 15 21 21 15 6 358 353 342 331 332 325 328 315 339 328 328 349 345
94 94 95 90 89 88 92 95 98 101 100 100 103 117 93 58 62 67 58 57 50 40 45 57 62 63 59 47 32 19 11 360 20 27 36 42 33 29 35 44 43 32 18 19 19 15 15 17 14 0 357 354 346 331 331 325 322 324 330 344 332 327 342
100 96 92 91 91 99 104 96 91 88 100 113 113 90 82 70 59 57 59 55 49 41 36 29 38 47 49 32 20 18 20 32 39 33 36 41 31 28 40 45 38 34 18 22 17 13 14 10 4 358 352 350 343 337 329 320 312 318 318 327 323 317 331
106 108 109 108 108 104 96 96 96 101 90 82 76 70 68 70 65 55 54 52 47 41 34 31 30 33 35 40 34 38 37 45 48 45 38 40 36 35 42 43 37 34 16 27 15 16 13 7 3 354 350 350 343 338 332 321 311 313 335 321 321 327 325
105 110 110 107 103 101 99 100 104 101 102 83 81 78 72 68 65 60 53 51 46 38 31 24 24 27 33 41 44 47 47 53 51 47 45 41 39 36 39 37 35 27 17 22 17 14 11 6 1 354 353 352 349 346 340 330 316 311 326 323 321 316 320
103 99 93 94 100 103 109 113 118 116 86 79 78 74 73 69 64 62 58 51 45 36 30 21 13 20 41 45 46 53 54 57 59 55 51 47 42 39 39 37 31 23 13 20 12 9 6 2 358 358 356 355 354 351 347 337 325 317 316 320 316 318 317
100 98 98 102 104 107 108 105 100 90 89 82 78 72 68 65 66 64 60 51 42 34 27 24 15 12 36 49 50 54 56 51 55 54 51 47 39 37 37 42 28 20 14 15 8 5 2 1 359 358 0 358 356 350 343 330 328 322 320 324 318 312 314
99 102 104 110 116 113 109 100 90 89 85 81 75 73 70 68 65 66 63 52 42 34 29 26 17 22 14 54 59 58 52 54 57 54 51 47 40 33 35 34 26 20 15 11 8 3 7 7 2 2 2 356 344 333 328 329 321 321 317 313 307 318 324
99 105 113 120 120 119 112 104 99 93 93 88 84 77 72 68 66 65 65 57 45 39 31 23 21 19 25 34 62 59 56 60 60 55 53 50 41 30 31 33 29 20 14 12 8 10 12 8 6 3 350 338 332 329 324 320 320 313 312 311 318 321 324
107 109 111 108 104 101 97 95 90 88 84 81 80 83 79 73 70 64 64 60 53 44 33 25 23 22 23 28 38 62 65 65 62 59 54 48 42 34 34 42 30 18 18 16 15 16 7 4 358 350 340 333 330 325 321 322 316 308 308 311 316 323 323
109 111 109 106 104 102 100 97 95 90 90 87 84 82 81 76 70 69 63 61 58 49 36 29 29 25 25 24 25 59 68 67 65 62 55 47 41 34 43 43 31 21 24 24 16 8 2 357 352 349 332 328 320 308 307 303 311 319 323 325 328 325 328
116 113 110 109 108 106 106 106 102 101 97 94 91 86 82 80 74 71 67 61 56 47 38 32 30 23 22 19 22 63 72 70 67 60 52 48 41 40 43 41 33 25 29 25 18 8 356 352 352 348 348 350 348 346 324 323 341 343 342 336 329 325 321
117 111 105 101 99 99 96 95 96 96 93 89 86 86 83 83 77 71 68 64 53 49 40 36 27 21 18 13 15 46 84 82 76 65 56 46 41 40 38 31 32 28 28 29 22 9 2 351 343 345 346 347 352 354 358 354 348 344 345 342 336 332 329
110 106 103 98 96 93 92 90 88 90 92 92 87 83 80 77 77 72 62 55 47 39 38 27 18 10 7 12 8 19 90 93 84 74 60 51 41 39 40 23 19 29 24 27 22 13 3 356 353 343 335 338 352 355 358 346 342 342 339 339 337 334 330
108 106 104 103 100 97 93 89 89 89 92 92 91 87 82 76 71 67 60 50 47 40 32 17 7 8 17 2 355 350 97 104 94 84 72 61 47 37 31 19 9 15 9 18 18 11 5 357 351 348 319 332 350 353 355 334 334 336 337 336 335 332 329
111 110 110 104 100 97 94 93 91 91 93 96 95 95 89 83 76 66 60 53 43 40 25 5 358 37 30 23 23 7 53 104 94 88 82 74 64 51 21 7 351 353 349 358 4 3 355 355 345 341 335 342 339 344 353 354 349 325 338 330 328 327 321
117 112 107 106 106 103 99 95 93 91 93 98 101 98 94 90 84 72 64 57 47 29 16 359 14 25 31 24 18 340 268 110 100 92 90 80 77 71 40 9 344 338 339 351 3 355 346 342 343 336 327 331 330 333 332 339 343 341 345 336 328 327 319
121 117 114 113 107 103 100 97 96 93 93 101 103 99 98 95 89 79 64 57 45 28 24 2 17 21 19 18 15 23 13 104 106 104 97 91 81 70 55 24 349 337 338 347 352 351 346 338 335 332 325 323 323 324 322 325 327 320 325 337 335 330 333
123 121 116 110 108 107 106 106 105 102 98 93 98 99 94 89 86 78 71 64 52 37 31 1 26 26 22 17 16 22 96 102 111 110 108 102 98 98 73 46 16 351 341 344 345 357 344 340 335 330 331 328 322 316 311 313 322 326 329 336 334 331 327
125 122 119 118 118 119 120 118 113 111 105 104 107 110 110 101 92 85 76 64 59 45 21 19 35 32 28 27 27 28 56 83 108 113 111 117 128 127 63 40 25 1 348 346 346 4 350 339 333 331 329 330 326 318 312 310 316 317 318 326 328 322 321
123 123 124 125 124 123 119 117 117 113 102 91 87 90 92 100 99 93 86 75 67 47 27 28 38 36 36 38 44 38 45 50 46 76 115 126 129 160 41 21 22 360 355 346 346 353 358 343 338 336 334 330 329 325 322 313 307 304 300 304 314 319 318
125 125 125 124 124 122 119 115 111 106 98 94 91 88 95 96 108 106 92 79 73 56 38 27 38 39 38 39 46 37 36 34 34 28 2 141 138 50 344 2 4 3 352 346 347 348 355 353 345 343 339 335 331 332 336 335 325 319 316 309 313 319 319
127 126 125 127 128 126 122 117 116 112 109 106 99 101 97 89 91 113 115 100 89 76 50 32 41 40 40 39 51 50 38 38 24 22 355 329 85 359 339 2 353 1 352 345 344 346 348 360 348 344 344 339 339 344 344 342 332 328 326 321 323 327 331
125 126 127 130 130 131 134 134 128 118 118 115 118 116 110 111 114 114 137 141 98 83 65 40 42 46 44 40 44 47 45 42 29 5 358 343 3 4 353 343 349 350 350 342 345 346 345 358 348 347 343 343 348 349 343 337 332 330 335 338 333 334 334
123 126 129 126 126 132 133 123 126 127 129 131 132 132 131 128 126 139 138 118 106 102 80 51 37 39 41 41 38 46 45 43 15 358 359 1 11 354 351 347 343 343 346 342 343 344 342 351 358 343 1 0 353 349 329 338 336 336 338 339 330 330 329
125 126 130 132 130 124 126 128 125 126 132 135 135 137 141 146 144 153 137 121 110 94 103 80 48 40 32 39 41 47 40 43 10 12 9 6 7 2 346 342 330 338 343 339 340 343 346 350 358 0 8 358 345 335 344 350 336 334 341 339 335 330 333
127 132 133 125 126 131 131 119 122 126 126 131 140 151 157 158 155 151 140 119 103 89 82 89 71 42 35 31 40 44 49 32 18 33 28 16 1 355 342 333 327 332 337 335 336 349 351 353 359 12 357 357 355 0 357 346 338 336 341 344 340 341 343
135 133 131 130 128 124 119 121 125 127 134 142 149 158 164 163 153 151 141 134 121 106 83 72 67 55 41 42 31 30 42 39 25 41 56 34 5 340 332 335 323 331 334 331 343 356 353 354 5 354 357 1 0 358 355 350 346 345 345 347 348 349 347
134 135 137 133 124 119 120 125 130 138 151 153 163 169 179 167 147 147 157 160 164 133 91 73 55 49 41 32 30 24 23 29 34 22 39 32 1 343 337 332 319 323 330 337 357 357 352 357 2 357 1 360 3 360 358 355 354 350 346 349 353 351 349